• In Deutschland
  • Länderverzeichnis
  • Für 7 Tage
  • Wassertemperatur
  • Satellitenkarten
  • Wetterkarte
  • Widgets
  • user-avatar
    Anmelden

    Stündliche Wetter Gredyakino

    Heute, 17 Juli, Dienstag

    Zeit Temperatur Niederschläge Wind Luftdruck Luftfeuchtigkeit
    00:00 +19°C° 0 mm 3 m/S 739 mmHg 96%
    01:00 +19°C° 0 mm 3 m/S 738 mmHg 96%
    02:00 +19°C° 0 mm 3 m/S 738 mmHg 97%
    03:00 +19°C° 0 mm 3 m/S 738 mmHg 97%
    04:00 +19°C° 0 mm 4 m/S 738 mmHg 97%
    05:00 +19°C° 0 mm 4 m/S 738 mmHg 97%
    06:00 +20°C° 0 mm 4 m/S 738 mmHg 91%
    07:00 +22°C° 0 mm 4 m/S 738 mmHg 86%
    08:00 +23°C° 0 mm 5 m/S 738 mmHg 81%
    09:00 +25°C° 0 mm 5 m/S 738 mmHg 75%
    10:00 +26°C° 0 mm 5 m/S 738 mmHg 70%
    11:00 +27°C° 0 mm 6 m/S 737 mmHg 64%
    12:00 +28°C° 0,1 mm 6 m/S 737 mmHg 62%
    13:00 +29°C° 0,1 mm 6 m/S 737 mmHg 61%
    14:00 +29°C° 0,1 mm 6 m/S 737 mmHg 59%
    15:00 +28°C° 0,2 mm 6 m/S 737 mmHg 63%
    16:00 +28°C° 0,2 mm 5 m/S 737 mmHg 67%
    17:00 +27°C° 0,2 mm 5 m/S 737 mmHg 71%
    18:00 +26°C° 0,1 mm 4 m/S 737 mmHg 76%
    19:00 +23°C° 0,1 mm 4 m/S 737 mmHg 81%
    20:00 +22°C° 0,1 mm 3 m/S 737 mmHg 85%
    21:00 +21°C° 0 mm 3 m/S 736 mmHg 85%
    22:00 +21°C° 0 mm 3 m/S 736 mmHg 86%
    23:00 +20°C° 0 mm 3 m/S 736 mmHg 86%

    Morgen, 18 Juli, Mittwoch

    Zeit Temperatur Niederschläge Wind Luftdruck Luftfeuchtigkeit
    00:00 +20°C° 0 mm 3 m/S 736 mmHg 86%
    01:00 +20°C° 0 mm 3 m/S 736 mmHg 86%
    02:00 +19°C° 0 mm 3 m/S 736 mmHg 87%
    03:00 +19°C° 0 mm 3 m/S 736 mmHg 87%
    04:00 +19°C° 0 mm 4 m/S 736 mmHg 87%
    05:00 +19°C° 0 mm 4 m/S 736 mmHg 87%
    06:00 +20°C° 0,1 mm 4 m/S 736 mmHg 87%
    07:00 +20°C° 0,1 mm 4 m/S 736 mmHg 87%
    08:00 +20°C° 0,1 mm 4 m/S 736 mmHg 87%
    09:00 +21°C° 0,1 mm 4 m/S 736 mmHg 85%
    10:00 +21°C° 0,1 mm 4 m/S 736 mmHg 84%
    11:00 +22°C° 0,1 mm 5 m/S 736 mmHg 82%
    12:00 +22°C° 0 mm 5 m/S 736 mmHg 80%
    13:00 +23°C° 0 mm 5 m/S 736 mmHg 78%
    14:00 +23°C° 0 mm 5 m/S 736 mmHg 76%
    15:00 +23°C° 0,2 mm 4 m/S 736 mmHg 77%
    16:00 +23°C° 0,2 mm 4 m/S 736 mmHg 77%
    17:00 +23°C° 0,2 mm 4 m/S 735 mmHg 77%
    18:00 +22°C° 0,5 mm 4 m/S 735 mmHg 81%
    19:00 +21°C° 0,5 mm 4 m/S 735 mmHg 85%
    20:00 +20°C° 0,5 mm 3 m/S 735 mmHg 89%
    21:00 +20°C° 0,2 mm 3 m/S 735 mmHg 90%
    22:00 +20°C° 0,2 mm 3 m/S 735 mmHg 92%
    23:00 +19°C° 0,2 mm 3 m/S 735 mmHg 93%

    übermorgen, 19 Juli, Donnerstag

    Zeit Temperatur Niederschläge Wind Luftdruck Luftfeuchtigkeit
    00:00 +19°C° 0,2 mm 3 m/S 735 mmHg 95%
    01:00 +19°C° 0,2 mm 3 m/S 735 mmHg 96%
    02:00 +18°C° 0,2 mm 3 m/S 735 mmHg 98%
    03:00 +18°C° 0,1 mm 3 m/S 735 mmHg 97%
    04:00 +18°C° 0,1 mm 3 m/S 735 mmHg 97%
    05:00 +18°C° 0,1 mm 3 m/S 735 mmHg 97%
    06:00 +19°C° 0,1 mm 3 m/S 735 mmHg 97%
    07:00 +19°C° 0,1 mm 3 m/S 735 mmHg 96%
    08:00 +20°C° 0,1 mm 4 m/S 735 mmHg 95%
    09:00 +20°C° 0,6 mm 4 m/S 735 mmHg 95%
    10:00 +19°C° 0,6 mm 4 m/S 735 mmHg 95%
    11:00 +19°C° 0,6 mm 4 m/S 735 mmHg 95%
    12:00 +19°C° 0,9 mm 4 m/S 735 mmHg 95%
    13:00 +19°C° 0,9 mm 4 m/S 735 mmHg 95%
    14:00 +19°C° 0,9 mm 4 m/S 734 mmHg 95%
    15:00 +19°C° 0,6 mm 4 m/S 734 mmHg 95%
    16:00 +20°C° 0,6 mm 4 m/S 734 mmHg 95%
    17:00 +20°C° 0,6 mm 4 m/S 734 mmHg 96%
    18:00 +20°C° 0,2 mm 4 m/S 734 mmHg 96%
    19:00 +19°C° 0,2 mm 3 m/S 734 mmHg 96%
    20:00 +19°C° 0,2 mm 3 m/S 734 mmHg 96%
    21:00 +19°C° 0,2 mm 3 m/S 734 mmHg 97%
    22:00 +19°C° 0,2 mm 3 m/S 734 mmHg 97%
    23:00 +19°C° 0,2 mm 3 m/S 734 mmHg 98%

    20 Juli, Freitag

    Zeit Temperatur Niederschläge Wind Luftdruck Luftfeuchtigkeit
    00:00 +19°C° 0,1 mm 3 m/S 734 mmHg 98%
    01:00 +19°C° 0,1 mm 3 m/S 734 mmHg 98%
    02:00 +19°C° 0,1 mm 2 m/S 734 mmHg 98%
    03:00 +19°C° 0,1 mm 2 m/S 734 mmHg 98%
    04:00 +19°C° 0,1 mm 2 m/S 734 mmHg 98%
    05:00 +19°C° 0,1 mm 2 m/S 734 mmHg 98%
    06:00 +20°C° 0,1 mm 3 m/S 734 mmHg 96%
    07:00 +20°C° 0,1 mm 3 m/S 734 mmHg 95%
    08:00 +21°C° 0,1 mm 3 m/S 734 mmHg 94%
    09:00 +21°C° 0,5 mm 3 m/S 734 mmHg 91%
    10:00 +22°C° 0,5 mm 3 m/S 734 mmHg 88%
    11:00 +24°C° 0,5 mm 3 m/S 734 mmHg 86%
    12:00 +24°C° 0,7 mm 3 m/S 734 mmHg 85%
    13:00 +25°C° 0,7 mm 4 m/S 734 mmHg 84%
    14:00 +25°C° 0,7 mm 4 m/S 734 mmHg 83%
    15:00 +25°C° 0,1 mm 4 m/S 734 mmHg 82%
    16:00 +25°C° 0,1 mm 3 m/S 733 mmHg 81%
    17:00 +25°C° 0,1 mm 3 m/S 733 mmHg 81%
    18:00 +24°C° 0,3 mm 3 m/S 733 mmHg 86%
    19:00 +23°C° 0,3 mm 2 m/S 733 mmHg 91%
    20:00 +21°C° 0,3 mm 2 m/S 733 mmHg 95%
    21:00 +20°C° 0,8 mm 2 m/S 733 mmHg 96%
    22:00 +21°C° 0,8 mm 1 m/S 733 mmHg 97%
    23:00 +20°C° 0,8 mm 1 m/S 733 mmHg 98%

    21 Juli, Samstag

    Zeit Temperatur Niederschläge Wind Luftdruck Luftfeuchtigkeit
    00:00 +20°C° 0,1 mm 1 m/S 733 mmHg 98%
    01:00 +20°C° 0,1 mm 1 m/S 733 mmHg 98%
    02:00 +19°C° 0,1 mm 1 m/S 733 mmHg 98%
    03:00 +19°C° 0 mm 1 m/S 733 mmHg 98%
    04:00 +19°C° 0 mm 1 m/S 733 mmHg 98%
    05:00 +20°C° 0 mm 1 m/S 733 mmHg 98%
    06:00 +21°C° 0 mm 1 m/S 733 mmHg 96%
    07:00 +22°C° 0 mm 1 m/S 733 mmHg 93%
    08:00 +23°C° 0 mm 1 m/S 734 mmHg 90%
    09:00 +24°C° 0,2 mm 1 m/S 734 mmHg 87%
    10:00 +24°C° 0,2 mm 1 m/S 734 mmHg 84%
    11:00 +25°C° 0,2 mm 1 m/S 734 mmHg 81%
    12:00 +26°C° 0,9 mm 1 m/S 734 mmHg 77%
    13:00 +27°C° 0,9 mm 2 m/S 734 mmHg 73%
    14:00 +28°C° 0,9 mm 2 m/S 734 mmHg 69%
    15:00 +27°C° 0,9 mm 2 m/S 734 mmHg 74%
    16:00 +27°C° 0,9 mm 2 m/S 734 mmHg 79%
    17:00 +26°C° 0,9 mm 1 m/S 734 mmHg 84%
    18:00 +25°C° 0,1 mm 1 m/S 734 mmHg 88%
    19:00 +24°C° 0,1 mm 1 m/S 734 mmHg 91%
    20:00 +23°C° 0,1 mm 1 m/S 734 mmHg 95%
    21:00 +22°C° 0 mm 1 m/S 734 mmHg 96%
    22:00 +21°C° 0 mm 1 m/S 734 mmHg 96%
    23:00 +21°C° 0 mm 1 m/S 734 mmHg 97%

    22 Juli, Sonntag

    Zeit Temperatur Niederschläge Wind Luftdruck Luftfeuchtigkeit
    00:00 +20°C° 0 mm 1 m/S 735 mmHg 98%
    01:00 +20°C° 0 mm 1 m/S 735 mmHg 98%
    02:00 +20°C° 0 mm 1 m/S 735 mmHg 98%
    03:00 +20°C° 0 mm 1 m/S 735 mmHg 98%
    04:00 +20°C° 0 mm 1 m/S 735 mmHg 98%
    05:00 +20°C° 0 mm 1 m/S 736 mmHg 98%
    06:00 +21°C° 0 mm 1 m/S 736 mmHg 94%
    07:00 +23°C° 0 mm 1 m/S 736 mmHg 89%
    08:00 +24°C° 0 mm 1 m/S 736 mmHg 85%
    09:00 +25°C° 0,1 mm 1 m/S 737 mmHg 79%
    10:00 +26°C° 0,1 mm 1 m/S 737 mmHg 74%
    11:00 +27°C° 0,1 mm 1 m/S 737 mmHg 68%
    12:00 +27°C° 0,3 mm 2 m/S 737 mmHg 67%
    13:00 +28°C° 0,3 mm 2 m/S 737 mmHg 66%
    14:00 +28°C° 0,3 mm 2 m/S 737 mmHg 65%
    15:00 +27°C° 1 mm 2 m/S 737 mmHg 73%
    16:00 +26°C° 1 mm 1 m/S 737 mmHg 81%
    17:00 +25°C° 1 mm 1 m/S 737 mmHg 88%
    18:00 +24°C° 0,5 mm 1 m/S 737 mmHg 90%
    19:00 +23°C° 0,5 mm 2 m/S 737 mmHg 92%
    20:00 +21°C° 0,5 mm 2 m/S 737 mmHg 94%
    21:00 +21°C° 0,9 mm 2 m/S 737 mmHg 95%
    22:00 +20°C° 0,9 mm 2 m/S 737 mmHg 96%
    23:00 +20°C° 0,9 mm 2 m/S 738 mmHg 96%
    Mehr zeigen